[[{"header":{"parameterUnit":"m.s-1","parameterCategory":1,"la1":30.2991,"la2":30.254,"lo1":-89.0895,"lo2":-89.0444,"dy":0.0017,"dx":0.0017,"nx":28,"ny":28,"refTime":"2026-02-14T03:00:00:Z","depth":0,"parameterNumber":2,"parameterNumberName":"U-component_of_WINDS"},"data":[0,0,0,0,0,0,0,0,0,0,0,0,0,0,0,0,0,0,0,0,0,0,0,0,0,0,0,0,0,0,0,0,0,0,0,0,0,0,0,0,0,0,0,0,0,0,0,0,0,0,0,0,0,0,0,0,0,0,0.2991,0.2992,0,0.3037,0.3038,0.3038,0.3064,0.3064,0.3064,0.3064,0.3107,0.3108,0.3109,0,0,0,0,0,0,0,0,0,0,0,0,0,0.292,0.2921,0.2991,0.2992,0.2992,0.3037,0.3038,0.3039,0.3064,0.3064,0.3064,0.3064,0.3107,0.3108,0.311,0,0,0,0,0,0,0,0,0,0,0,0,0,0.2957,0.2921,0.2991,0.301,0.3013,0.3037,0.3038,0.3039,0.3064,0.3064,0.3064,0.3064,0.3107,0.3108,0.311,0.3117,0,0,0.3115,0.3115,0,0,0,0,0,0,0,0,0.2955,0.2959,0.3007,0.3009,0.3012,0.3045,0.3029,0.3065,0.3064,0.3044,0.3064,0.3064,0.3086,0.309,0.3098,0.3119,0.3121,0.3115,0.3116,0.3116,0.3117,0,0,0,0,0,0,0,0.2952,0.2957,0.3009,0.3008,0.301,0.3015,0.3021,0.3036,0.3064,0.3046,0.3048,0.3053,0.3088,0.3096,0.3099,0.3122,0.3115,0.3116,0.3117,0.3118,0.3151,0.3151,0,0,0,0,0,0,0.2947,0.2955,0.3008,0.3011,0.2983,0.3016,0.3022,0.3034,0.3064,0.3069,0.3053,0.3054,0.3093,0.3097,0.3101,0.3111,0.3116,0.3118,0.3119,0.3151,0.3151,0.3151,0,0,0,0,0,0,0.2945,0.2951,0.3006,0.2983,0.2991,0.3018,0.303,0.3035,0.3044,0.3069,0.3074,0.3057,0.3094,0.3098,0.3113,0.3113,0.3119,0.312,0.3151,0.3151,0.3151,0.3132,0,0,0,0,0,0,0.2943,0.2951,0.2955,0.2983,0.2992,0.3019,0.303,0.3036,0.3047,0.3049,0.3074,0.3079,0.3094,0.3111,0.3115,0.3115,0.3121,0.3151,0.3151,0.3151,0.3133,0.3131,0.313,0,0,0,0,0,0.2941,0.2947,0.2955,0.2961,0.2998,0.3019,0.3023,0.3042,0.3047,0.3051,0.3067,0.3078,0.3112,0.3112,0.3117,0.3118,0.3151,0.3151,0.3151,0.3134,0.3132,0.313,0,0,0,0,0,0,0.2916,0.2951,0.296,0.2977,0.2995,0.3023,0.3029,0.304,0.3056,0.3057,0.3079,0.3084,0.3096,0.3109,0.3107,0.3126,0.3133,0.3134,0.3118,0.3117,0.3115,0.3112,0.3123,0,0,0,0,0,0.2913,0.2929,0.2958,0.2969,0.2978,0.3001,0.3011,0.3024,0.3043,0.3051,0.3068,0.3085,0.31,0.3109,0.3124,0.3135,0.314,0.3138,0.3136,0.3135,0.3135,0.3142,0.3141,0.315,0.315,0.315,0,0,0.2906,0.2927,0.2935,0.2965,0.298,0.2994,0.3008,0.3022,0.3032,0.3052,0.3068,0.3081,0.3101,0.3114,0.312,0.3124,0.3134,0.3135,0.3134,0.3135,0.3141,0.314,0.314,0.315,0.315,0.315,0,0,0.2901,0.2918,0.293,0.2945,0.2969,0.2985,0.2988,0.3015,0.3025,0.3041,0.3056,0.3067,0.3092,0.3106,0.3116,0.3116,0.3126,0.312,0.3112,0.3118,0.3117,0.3117,0.3116,0.3116,0.312,0.312,0.312,0,0.2889,0.2912,0.2934,0.2948,0.296,0.298,0.2991,0.3004,0.3031,0.3038,0.3042,0.3074,0.3089,0.3105,0.3105,0.3113,0.3115,0.3117,0.3116,0.3116,0.3115,0.3115,0.3115,0.3119,0.3119,0.3119,0.3119,0,0.2896,0.2912,0.2918,0.2945,0.2957,0.2969,0.2991,0.3001,0.3013,0.3028,0.3043,0.3062,0.3081,0.3086,0.3097,0.3103,0.3105,0.3112,0.3119,0.3113,0.3113,0.3113,0.3118,0.3118,0.3118,0.3118,0,0,0.2876,0.2916,0.2917,0.293,0.2958,0.2969,0.2982,0.3002,0.3009,0.3027,0.3037,0.3058,0.3065,0.3076,0.3089,0.3094,0.3092,0.3101,0.3102,0.3098,0.3099,0.3093,0.3093,0.3099,0.3099,0.3099,0.3097,0,0.2875,0.29,0.292,0.2937,0.2951,0.297,0.2981,0.2998,0.3012,0.3025,0.304,0.3054,0.3063,0.307,0.3075,0.3091,0.3092,0.3091,0.3107,0.3108,0.3102,0.3093,0.3086,0.3084,0.3097,0.3097,0.3097,0,0.2876,0.2895,0.2914,0.294,0.2946,0.2956,0.2975,0.2988,0.3007,0.3017,0.303,0.3043,0.3056,0.3062,0.3079,0.3078,0.3085,0.3093,0.3094,0.3096,0.3102,0.3094,0.3084,0.3083,0.3098,0.3098,0.3097,0,0.286,0.2889,0.2904,0.2914,0.2945,0.2951,0.2964,0.2984,0.2994,0.3011,0.3017,0.3035,0.3044,0.3056,0.3073,0.3076,0.3088,0.3095,0.3095,0.3095,0.3097,0.3096,0.3087,0.3102,0.3102,0.3102,0.3102,0,0.2856,0.2866,0.2897,0.2907,0.2919,0.294,0.2951,0.2965,0.2983,0.2994,0.3011,0.302,0.3043,0.3055,0.3068,0.308,0.3083,0.3091,0.3094,0.3089,0.3088,0.3094,0.3095,0.3102,0.3102,0.3102,0.3102,0,0.2839,0.2861,0.2878,0.2907,0.2914,0.2921,0.2944,0.2953,0.2968,0.2982,0.2986,0.3009,0.3024,0.3043,0.3063,0.3072,0.3082,0.3087,0.3076,0.3078,0.3077,0.3076,0.3071,0.3071,0.3086,0.3086,0.3085,0,0.2835,0.2844,0.2874,0.2883,0.2896,0.2911,0.2922,0.2943,0.2954,0.2976,0.2982,0.2999,0.3013,0.3036,0.3053,0.3069,0.3074,0.3071,0.3077,0.3071,0.3074,0.3073,0.3074,0.307,0.307,0.3069,0.3069,0,0.2826,0.2836,0.2852,0.2872,0.2885,0.2901,0.2918,0.2924,0.2949,0.2959,0.2976,0.2987,0.3008,0.3024,0.3042,0.3054,0.3065,0.3067,0.3068,0.3063,0.3056,0.3059,0.3072,0.3067,0.3068,0.3068,0.3068,0.3068,0.2815,0.2824,0.2846,0.2863,0.2878,0.2894,0.2903,0.292,0.2934,0.2954,0.2966,0.2981,0.3,0.3025,0.3036,0.3048,0.3052,0.3053,0.3053,0.3053,0.3051,0.3054,0.3051,0.3051,0.3051,0.3051,0.3051,0,0.2806,0.2821,0.2837,0.2861,0.2874,0.2885,0.2904,0.2914,0.2928,0.2945,0.2959,0.2977,0.2993,0.3011,0.3028,0.3033,0.3039,0.3037,0.3036,0.3039,0.3047,0.3045,0.3032,0.3032,0.3032,0.3032,0.3032,0.3032,0.2803,0.2818,0.2831,0.2853,0.2868,0.2884,0.2894,0.2908,0.2921,0.2941,0.2955,0.2968,0.2985,0.3002,0.3016,0.3022,0.3026,0.3023,0.3029,0.3036,0.3038,0.304,0.3038,0.3024,0.3024,0.302,0.302,0.302]},{"header":{"parameterUnit":"m.s-1","parameterCategory":1,"la1":30.2991,"la2":30.254,"lo1":-89.0895,"lo2":-89.0444,"dy":0.0017,"dx":0.0017,"nx":28,"ny":28,"refTime":"2026-02-14T03:00:00:Z","depth":0,"parameterNumber":3,"parameterNumberName":"V-component_of_WINDS"},"data":[0,0,0,0,0,0,0,0,0,0,0,0,0,0,0,0,0,0,0,0,0,0,0,0,0,0,0,0,0,0,0,0,0,0,0,0,0,0,0,0,0,0,0,0,0,0,0,0,0,0,0,0,0,0,0,0,0,0,1.2771,1.2771,0,1.2779,1.2779,1.2779,1.2743,1.2741,1.274,1.2739,1.2752,1.2753,1.2754,0,0,0,0,0,0,0,0,0,0,0,0,0,1.2727,1.2728,1.2771,1.2771,1.2771,1.2779,1.2779,1.2779,1.2743,1.2741,1.274,1.2739,1.2751,1.2753,1.2755,0,0,0,0,0,0,0,0,0,0,0,0,0,1.2742,1.2729,1.2771,1.2754,1.2752,1.2779,1.2779,1.2779,1.2743,1.2741,1.274,1.2738,1.2751,1.2753,1.2755,1.28,0,0,1.2761,1.2762,0,0,0,0,0,0,0,0,1.2741,1.2744,1.2756,1.2755,1.2753,1.2758,1.2768,1.2786,1.2743,1.2747,1.2739,1.2737,1.2755,1.2757,1.2762,1.28,1.2801,1.2761,1.2762,1.2763,1.2764,0,0,0,0,0,0,0,1.274,1.2743,1.2774,1.2756,1.2754,1.2747,1.2747,1.2771,1.276,1.2746,1.2744,1.2745,1.2754,1.276,1.2762,1.2801,1.2761,1.2763,1.2764,1.2765,1.2877,1.2879,0,0,0,0,0,0,1.2741,1.2743,1.2774,1.2774,1.2743,1.2749,1.2749,1.2758,1.276,1.2758,1.2746,1.2743,1.2758,1.276,1.2763,1.2816,1.2763,1.2765,1.2766,1.2876,1.2878,1.288,0,0,0,0,0,0,1.274,1.2744,1.2773,1.2758,1.2761,1.2751,1.2762,1.2759,1.2765,1.276,1.2758,1.2754,1.2757,1.276,1.2791,1.2816,1.2766,1.2768,1.2873,1.2876,1.2879,1.2922,0,0,0,0,0,0,1.2739,1.2744,1.276,1.2758,1.2762,1.28,1.2763,1.276,1.2768,1.2764,1.2767,1.2766,1.2755,1.2788,1.2793,1.2818,1.2769,1.2871,1.2875,1.2878,1.2919,1.2926,1.2933,0,0,0,0,0,1.2738,1.2773,1.2761,1.2765,1.2781,1.2802,1.2804,1.279,1.277,1.2787,1.2784,1.2765,1.2812,1.2791,1.2796,1.2822,1.287,1.2874,1.2878,1.2916,1.2925,1.2933,0,0,0,0,0,0,1.2779,1.2772,1.2759,1.2794,1.2799,1.2795,1.2816,1.28,1.2812,1.2808,1.2792,1.2793,1.2827,1.2828,1.2805,1.2866,1.2838,1.2843,1.2865,1.2873,1.288,1.288,1.2771,0,0,0,0,0,1.2792,1.2807,1.2801,1.2833,1.2836,1.2826,1.2834,1.2823,1.2828,1.283,1.2829,1.2835,1.2851,1.2862,1.2877,1.2918,1.2919,1.2939,1.2946,1.2952,1.2957,1.298,1.2989,1.2893,1.2893,1.2893,0,0,1.2819,1.2817,1.2828,1.2841,1.2843,1.2862,1.2827,1.2848,1.2862,1.2833,1.2862,1.2862,1.2868,1.2905,1.2921,1.2907,1.2984,1.2957,1.2962,1.2963,1.2985,1.2994,1.3003,1.2896,1.2895,1.2895,0,0,1.2878,1.2878,1.2904,1.2907,1.2911,1.2904,1.291,1.2909,1.2908,1.2936,1.2916,1.2932,1.296,1.2966,1.2972,1.3034,1.3018,1.3039,1.3076,1.3099,1.3107,1.3113,1.3136,1.3145,1.3044,1.3044,1.3044,0,1.2912,1.2937,1.292,1.2942,1.2949,1.2923,1.2951,1.2955,1.2964,1.297,1.2953,1.2987,1.299,1.3028,1.3043,1.3049,1.3057,1.3039,1.3107,1.3113,1.3119,1.3141,1.315,1.3047,1.3046,1.3046,1.3046,0,1.2979,1.2997,1.3018,1.3026,1.3035,1.306,1.3049,1.306,1.3049,1.3044,1.3075,1.3076,1.3091,1.3099,1.3089,1.3136,1.3127,1.3109,1.308,1.3131,1.3152,1.316,1.305,1.3049,1.3049,1.3048,0,0,1.3064,1.3062,1.3071,1.3074,1.3076,1.3091,1.3115,1.3128,1.3139,1.3146,1.3167,1.3191,1.3174,1.3182,1.3172,1.3192,1.3242,1.3171,1.3171,1.3185,1.3296,1.3311,1.3321,1.3231,1.3233,1.3234,1.3296,0,1.3123,1.3163,1.3149,1.3191,1.3208,1.3184,1.3205,1.3209,1.3206,1.3221,1.3218,1.3235,1.3211,1.3215,1.3234,1.3232,1.3264,1.3227,1.3252,1.3253,1.3252,1.3331,1.3346,1.3405,1.3304,1.3305,1.3306,0,1.3196,1.3205,1.3248,1.3248,1.3255,1.3274,1.3286,1.33,1.3305,1.3301,1.331,1.3296,1.3321,1.3291,1.3327,1.3302,1.3311,1.3312,1.3314,1.3316,1.3283,1.3337,1.3423,1.3432,1.3318,1.3317,1.3316,0,1.3256,1.3279,1.3307,1.3311,1.3311,1.3326,1.3327,1.333,1.3339,1.335,1.3356,1.337,1.3377,1.3389,1.338,1.3359,1.3418,1.3387,1.3417,1.3417,1.3431,1.343,1.3521,1.3435,1.3435,1.3435,1.3435,0,1.3323,1.3351,1.3334,1.3352,1.3383,1.3367,1.3398,1.3397,1.34,1.3418,1.3398,1.3416,1.3402,1.342,1.3413,1.3444,1.3447,1.3446,1.3444,1.3449,1.3449,1.3455,1.3451,1.3437,1.3437,1.3436,1.3436,0,1.3395,1.3384,1.3414,1.3412,1.3412,1.3435,1.3433,1.3451,1.3446,1.3469,1.3474,1.3467,1.3486,1.3477,1.3498,1.3493,1.3534,1.3526,1.3532,1.353,1.3561,1.3559,1.366,1.3673,1.3578,1.3579,1.358,0,1.3439,1.3459,1.3459,1.3469,1.3471,1.3488,1.3497,1.3483,1.3493,1.3501,1.3518,1.3535,1.3548,1.358,1.3578,1.3594,1.3587,1.3621,1.3589,1.3593,1.3589,1.3588,1.3591,1.3628,1.3629,1.363,1.3631,0,1.3519,1.3513,1.3525,1.3537,1.3548,1.3557,1.3564,1.3574,1.356,1.3574,1.3592,1.3602,1.3623,1.3641,1.3655,1.3658,1.3643,1.364,1.3648,1.3654,1.3657,1.3656,1.355,1.3638,1.3638,1.3637,1.3637,1.3636,1.3578,1.3596,1.3598,1.3614,1.3618,1.3625,1.3641,1.3638,1.3653,1.3668,1.3659,1.3681,1.3687,1.3704,1.3709,1.3728,1.3714,1.3726,1.3729,1.3732,1.3736,1.3653,1.373,1.373,1.3729,1.3729,1.3729,0,1.3658,1.3658,1.3673,1.3683,1.3696,1.3679,1.3686,1.3698,1.3718,1.3724,1.3737,1.3759,1.3777,1.3775,1.3792,1.3807,1.3801,1.3812,1.3811,1.3813,1.3747,1.3739,1.3817,1.3817,1.3817,1.3817,1.3817,1.3817,1.3701,1.373,1.3724,1.3756,1.3756,1.3777,1.3783,1.379,1.3795,1.382,1.3834,1.3833,1.3836,1.3853,1.3869,1.3868,1.3876,1.389,1.3887,1.3826,1.3817,1.3809,1.3801,1.3891,1.3891,1.3951,1.3952,1.3952]}]]